When you browse on this site, cookies collect data to enhance your experience and personalize the content and advertising you see.
Visit our Privacy Policy to learn more. By continuing to use the site, you agree to this use of cookies and data.
  • în România
  • Lista ţărilor
  • Pe 7 zile
  • Temperatura apei
  • Hartă satelitară
  • Meteo pe hartă
  • Widget-uri
  • user-avatar
    Intrare

    Meteo pe oră la Sidi Bu-l-Abbas

    Astăzi, 22 Martie, Vineri

    Timp Temperatura Precipitaţii Vânt Presiune Umiditate
    00:00 +9°C° 0 mm 1 m/s 724 mmHg 88%
    01:00 +9°C° 0 mm 1 m/s 724 mmHg 89%
    02:00 +9°C° 0 mm 1 m/s 724 mmHg 90%
    03:00 +9°C° 0 mm 1 m/s 724 mmHg 90%
    04:00 +9°C° 0.1 mm 1 m/s 724 mmHg 91%
    05:00 +9°C° 0.1 mm 1 m/s 724 mmHg 92%
    06:00 +9°C° 0 mm 1 m/s 724 mmHg 95%
    07:00 +9°C° 0 mm 2 m/s 724 mmHg 89%
    08:00 +10°C° 0 mm 2 m/s 725 mmHg 84%
    09:00 +11°C° 0 mm 3 m/s 725 mmHg 79%
    10:00 +11°C° 0.1 mm 3 m/s 725 mmHg 75%
    11:00 +12°C° 0.1 mm 4 m/s 725 mmHg 70%
    12:00 +13°C° 0.1 mm 4 m/s 725 mmHg 66%
    13:00 +13°C° 0.1 mm 4 m/s 725 mmHg 65%
    14:00 +14°C° 0.1 mm 5 m/s 724 mmHg 65%
    15:00 +14°C° 0.1 mm 5 m/s 724 mmHg 64%
    16:00 +13°C° 0.1 mm 4 m/s 724 mmHg 68%
    17:00 +12°C° 0.1 mm 4 m/s 724 mmHg 72%
    18:00 +12°C° 0.1 mm 4 m/s 724 mmHg 76%
    19:00 +10°C° 0 mm 3 m/s 724 mmHg 82%
    20:00 +9°C° 0 mm 2 m/s 724 mmHg 88%
    21:00 +9°C° 0 mm 1 m/s 724 mmHg 95%
    22:00 +7°C° 0 mm 0 m/s 724 mmHg 95%
    23:00 +7°C° 0 mm 0 m/s 724 mmHg 96%

    Mâine, 23 Martie, Sâmbătă

    Timp Temperatura Precipitaţii Vânt Presiune Umiditate
    00:00 +7°C° 0 mm 0 m/s 724 mmHg 96%
    01:00 +6°C° 0 mm 0 m/s 724 mmHg 96%
    02:00 +6°C° 0 mm 0 m/s 724 mmHg 96%
    03:00 +6°C° 0 mm 0 m/s 723 mmHg 96%
    04:00 +6°C° 0 mm 0 m/s 723 mmHg 96%
    05:00 +5°C° 0 mm 0 m/s 723 mmHg 97%
    06:00 +6°C° 0 mm 1 m/s 723 mmHg 97%
    07:00 +8°C° 0 mm 1 m/s 724 mmHg 89%
    08:00 +10°C° 0 mm 1 m/s 724 mmHg 81%
    09:00 +13°C° 0 mm 2 m/s 725 mmHg 73%
    10:00 +14°C° 0 mm 2 m/s 725 mmHg 64%
    11:00 +16°C° 0 mm 3 m/s 725 mmHg 54%
    12:00 +17°C° 0 mm 3 m/s 725 mmHg 44%
    13:00 +18°C° 0 mm 4 m/s 724 mmHg 41%
    14:00 +19°C° 0 mm 5 m/s 723 mmHg 38%
    15:00 +19°C° 0 mm 6 m/s 723 mmHg 36%
    16:00 +17°C° 0 mm 5 m/s 722 mmHg 43%
    17:00 +16°C° 0 mm 5 m/s 722 mmHg 50%
    18:00 +14°C° 0 mm 5 m/s 722 mmHg 58%
    19:00 +13°C° 0 mm 4 m/s 722 mmHg 67%
    20:00 +12°C° 0 mm 3 m/s 722 mmHg 76%
    21:00 +12°C° 0 mm 2 m/s 723 mmHg 85%
    22:00 +12°C° 0 mm 2 m/s 723 mmHg 84%
    23:00 +10°C° 0 mm 2 m/s 722 mmHg 83%

    Poimâine, 24 Martie, Duminică

    Timp Temperatura Precipitaţii Vânt Presiune Umiditate
    00:00 +10°C° 0 mm 2 m/s 722 mmHg 83%
    01:00 +10°C° 0 mm 2 m/s 722 mmHg 77%
    02:00 +12°C° 0 mm 2 m/s 722 mmHg 71%
    03:00 +12°C° 0 mm 2 m/s 722 mmHg 64%
    04:00 +12°C° 0 mm 2 m/s 721 mmHg 62%
    05:00 +12°C° 0 mm 2 m/s 721 mmHg 59%
    06:00 +11°C° 0 mm 3 m/s 721 mmHg 57%
    07:00 +13°C° 0 mm 4 m/s 722 mmHg 49%
    08:00 +16°C° 0 mm 5 m/s 723 mmHg 41%
    09:00 +18°C° 0 mm 7 m/s 724 mmHg 34%
    10:00 +19°C° 0 mm 6 m/s 723 mmHg 37%
    11:00 +19°C° 0 mm 6 m/s 723 mmHg 40%
    12:00 +19°C° 0 mm 6 m/s 723 mmHg 42%
    13:00 +17°C° 0.3 mm 5 m/s 723 mmHg 46%
    14:00 +18°C° 0.3 mm 4 m/s 722 mmHg 50%
    15:00 +17°C° 0.3 mm 2 m/s 722 mmHg 54%
    16:00 +17°C° 0.1 mm 3 m/s 722 mmHg 55%
    17:00 +15°C° 0.1 mm 4 m/s 722 mmHg 56%
    18:00 +15°C° 0.1 mm 4 m/s 722 mmHg 57%
    19:00 +15°C° 0 mm 4 m/s 722 mmHg 58%
    20:00 +14°C° 0 mm 4 m/s 722 mmHg 59%
    21:00 +13°C° 0 mm 4 m/s 723 mmHg 61%
    22:00 +13°C° 0 mm 4 m/s 722 mmHg 59%
    23:00 +13°C° 0 mm 4 m/s 722 mmHg 57%

    25 Martie, Luni

    Timp Temperatura Precipitaţii Vânt Presiune Umiditate
    00:00 +13°C° 0 mm 4 m/s 722 mmHg 55%
    01:00 +13°C° 0 mm 4 m/s 722 mmHg 54%
    02:00 +14°C° 0 mm 4 m/s 722 mmHg 53%
    03:00 +14°C° 0 mm 4 m/s 721 mmHg 52%
    04:00 +14°C° 0 mm 4 m/s 721 mmHg 53%
    05:00 +14°C° 0 mm 4 m/s 721 mmHg 54%
    06:00 +13°C° 0 mm 4 m/s 721 mmHg 55%
    07:00 +15°C° 0 mm 5 m/s 722 mmHg 51%
    08:00 +16°C° 0 mm 5 m/s 722 mmHg 47%
    09:00 +19°C° 0 mm 6 m/s 723 mmHg 43%
    10:00 +21°C° 0 mm 5 m/s 723 mmHg 38%
    11:00 +23°C° 0 mm 5 m/s 722 mmHg 33%
    12:00 +26°C° 0 mm 5 m/s 722 mmHg 28%
    13:00 +26°C° 0 mm 5 m/s 722 mmHg 27%
    14:00 +27°C° 0 mm 4 m/s 721 mmHg 26%
    15:00 +27°C° 0 mm 4 m/s 720 mmHg 24%
    16:00 +26°C° 0 mm 4 m/s 720 mmHg 28%
    17:00 +25°C° 0 mm 4 m/s 720 mmHg 31%
    18:00 +22°C° 0 mm 3 m/s 719 mmHg 35%
    19:00 +21°C° 0 mm 4 m/s 719 mmHg 36%
    20:00 +20°C° 0 mm 4 m/s 720 mmHg 38%
    21:00 +19°C° 0 mm 4 m/s 720 mmHg 39%
    22:00 +18°C° 0 mm 4 m/s 720 mmHg 39%
    23:00 +18°C° 0 mm 4 m/s 720 mmHg 39%

    26 Martie, Marţi

    Timp Temperatura Precipitaţii Vânt Presiune Umiditate
    00:00 +17°C° 0 mm 4 m/s 720 mmHg 39%
    01:00 +17°C° 0 mm 4 m/s 720 mmHg 41%
    02:00 +15°C° 0 mm 4 m/s 719 mmHg 42%
    03:00 +15°C° 0 mm 4 m/s 719 mmHg 43%
    04:00 +14°C° 0 mm 3 m/s 719 mmHg 45%
    05:00 +14°C° 0 mm 3 m/s 719 mmHg 47%
    06:00 +13°C° 0 mm 3 m/s 719 mmHg 49%
    07:00 +17°C° 0 mm 4 m/s 719 mmHg 44%
    08:00 +19°C° 0 mm 5 m/s 720 mmHg 39%
    09:00 +22°C° 0 mm 6 m/s 720 mmHg 34%
    10:00 +23°C° 0 mm 7 m/s 720 mmHg 31%
    11:00 +24°C° 0 mm 8 m/s 720 mmHg 28%
    12:00 +27°C° 0 mm 9 m/s 720 mmHg 25%
    13:00 +27°C° 0 mm 9 m/s 719 mmHg 24%
    14:00 +27°C° 0 mm 8 m/s 719 mmHg 23%
    15:00 +27°C° 0 mm 8 m/s 718 mmHg 22%
    16:00 +26°C° 0 mm 8 m/s 718 mmHg 25%
    17:00 +23°C° 0 mm 8 m/s 718 mmHg 27%
    18:00 +21°C° 0 mm 7 m/s 717 mmHg 29%
    19:00 +21°C° 0 mm 7 m/s 718 mmHg 31%
    20:00 +20°C° 0 mm 6 m/s 718 mmHg 33%
    21:00 +19°C° 0 mm 6 m/s 719 mmHg 34%
    22:00 +19°C° 0.7 mm 5 m/s 719 mmHg 41%
    23:00 +17°C° 0.7 mm 5 m/s 719 mmHg 48%

    27 Martie, Miercuri

    Timp Temperatura Precipitaţii Vânt Presiune Umiditate
    00:00 +17°C° 0.7 mm 4 m/s 719 mmHg 55%
    01:00 +17°C° 0.3 mm 4 m/s 719 mmHg 57%
    02:00 +15°C° 0.3 mm 4 m/s 719 mmHg 60%
    03:00 +16°C° 0.3 mm 3 m/s 719 mmHg 63%
    04:00 +15°C° 0.5 mm 4 m/s 719 mmHg 65%
    05:00 +14°C° 0.5 mm 4 m/s 719 mmHg 68%
    06:00 +14°C° 0.5 mm 4 m/s 719 mmHg 71%
    07:00 +16°C° 0 mm 5 m/s 719 mmHg 65%
    08:00 +17°C° 0 mm 6 m/s 720 mmHg 59%
    09:00 +20°C° 0 mm 7 m/s 720 mmHg 54%
    10:00 +22°C° 0 mm 8 m/s 720 mmHg 46%
    11:00 +24°C° 0 mm 9 m/s 720 mmHg 38%
    12:00 +27°C° 0 mm 9 m/s 720 mmHg 30%
    13:00 +27°C° 0 mm 8 m/s 720 mmHg 31%
    14:00 +26°C° 0 mm 8 m/s 719 mmHg 33%
    15:00 +26°C° 0 mm 7 m/s 719 mmHg 34%
    16:00 +24°C° 0 mm 6 m/s 719 mmHg 38%
    17:00 +23°C° 0 mm 4 m/s 719 mmHg 42%
    18:00 +22°C° 0 mm 3 m/s 719 mmHg 46%
    19:00 +20°C° 0.1 mm 3 m/s 720 mmHg 52%
    20:00 +19°C° 0.1 mm 2 m/s 720 mmHg 58%
    21:00 +17°C° 0.1 mm 2 m/s 720 mmHg 63%
    22:00 +17°C° 0.4 mm 3 m/s 720 mmHg 65%
    23:00 +17°C° 0.4 mm 3 m/s 720 mmHg 67%
    Arată mai mult